Regional Weather Roundup
Issued by NWS

Home | Current Version | Previous Version | Graphics & Text | Print | Product List | Glossary On
Versions: 1 2 3 4 5 6 7 8 9 10 11 12 13 14 15 16 17 18 19 20 21 22 23 24 25 26 27 28 29 30 31 32 33 34 35 36 37 38 39 40 41 42 43 44 45 46 47 48 49 50
000
ASUS43 KDTX 210101
RWRMI
MICHIGAN HOURLY REGIONAL WEATHER ROUNDUP
NATIONAL WEATHER SERVICE DETROIT/PONTIAC MI
900 PM EDT SUN AUG 20 2017

NOTE: "FAIR" INDICATES FEW OR NO CLOUDS BELOW 12,000 FEET WITH NO
SIGNIFICANT WEATHER AND/OR OBSTRUCTION TO VISIBILITY.

MIZ047>049-052>055-059>063-066>070-074>076-081>083-210200-
SOUTHEAST LOWER MICHIGAN

CITY           SKY/WX    TMP DP  RH WIND       PRES   REMARKS
ADRIAN         CLOUDY    75  69  81 CALM      30.08R
ALMA           MOCLDY    71  64  80 CALM      30.05S
ANN ARBOR      CLOUDY    75  65  70 SE6       30.07R
BAD AXE        PTCLDY    67  63  85 CALM      30.06S
CARO           MOCLDY    65  63  90 CALM      30.05S
DETROIT CITY   PTCLDY    77  62  59 S5        30.07S
DETROIT        CLOUDY    76  65  68 S5        30.09R
FLINT          PTCLDY    71  63  75 S5        30.06R
GROSSE ILE     CLOUDY    75  66  73 CALM      30.07R
HILLSDALE      CLOUDY    72  66  83 CALM      30.09R
HOWELL         CLOUDY    76  63  64 CALM      30.07R

CITY           SKY/WX    TMP DP  RH WIND       PRES   REMARKS
JACKSON        MOCLDY    77  63  61 S5        30.08R
LAMBERTVILLE   CLOUDY    74  68  80 CALM      30.07R
LANSING        CLOUDY    75  62  64 CALM      30.06R
LAPEER         FAIR      69  65  85 CALM      30.07R
MASON          CLOUDY    75  63  67 CALM      30.07R
MONROE         CLOUDY    75  69  81 SE3       30.07R
MT. CLEMENS    MOCLDY    71  65  81 S8        30.05S
PONTIAC        CLOUDY    76  62  62 S3        30.07R
PORT HOPE        N/A     70  60  70 S3        30.04S
PORT HURON     CLEAR     66  61  82 CALM      30.08R
TRI CITIES     MOCLDY    76  63  64 S5        30.05R
MIDLAND        FAIR      72  65  76 CALM      30.04R
TROY           PTCLDY    79  60  51 S5        30.09R
SAGINAW HB     PTCLDY    70  63  78 S5        30.05R
$$
MIZ043>046-050>051-056>058-064>065-071>073-077>080-210200-
SOUTHWEST LOWER MICHIGAN

CITY           SKY/WX    TMP DP  RH WIND       PRES   REMARKS
BATTLE CREEK   CLOUDY    76  63  64 S6        30.07R
BENTON HARBOR  PTCLDY    80  65  59 S3        30.03S
BIG RAPIDS     MOCLDY    67  62  83 CALM      30.04S
COLDWATER      CLOUDY    76  64  67 CALM      30.08R
FREMONT        FAIR      71  65  81 CALM      30.03S
HOLLAND        MOCLDY    72  66  81 CALM      30.04R
GRAND RAPIDS   MOCLDY    76  66  71 SE3       30.05R
IONIA          FAIR      71  63  74 CALM      30.05R
KALAMAZOO      PTCLDY    79  61  53 SE3       30.05S
LUDINGTON      CLOUDY    73  61  66 S5        30.01S
MARSHALL       PTCLDY    74  65  71 CALM      30.06S
MOUNT PLEASANT CLOUDY    78  59  52 S3        30.03F
MUSKEGON       CLOUDY    75  62  64 S3        30.03S
SOUTH HAVEN    CLOUDY    75  69  80 CALM      30.03S
$$
MIZ016>042-210200-
NORTHERN LOWER MICHIGAN

CITY           SKY/WX    TMP DP  RH WIND       PRES   REMARKS
ALPENA         CLOUDY    74  64  71 S6        30.00S
BEAVER ISLAND  PTCLDY    71  63  74 SW12      29.97R
BELLAIRE       PTCLDY    74  62  64 S6        29.98S
CADILLAC       CLOUDY    72  62  69 SW5       30.05R
CHARLEVOIX     PTCLDY    74  62  67 S6        30.00R
FRANKFORT      PTCLDY    75  63  64 S8        29.99S
GAYLORD        MOCLDY    71  60  68 SW7       30.02R
GRAYLING       CLOUDY    73  59  60 S5        30.04R
HARBOR SPRINGS PTCLDY    73  62  70 CALM      29.97R
HOUGHTON LAKE  CLOUDY    71  61  70 S7        30.05R
MANISTEE       MOCLDY    73  63  70 SE3       30.00S
OSCODA         MOCLDY    74  60  62 S6        30.01S
PELLSTON       CLOUDY    71  63  75 CALM      29.97S
ROGERS CITY    CLEAR     73  62  66 S3        30.00R
TRAVERSE CITY  CLOUDY    76  62  62 S3        29.97S
$$
MIZ007>008-015-210200-
EASTERN UPPER MICHIGAN

CITY           SKY/WX    TMP DP  RH WIND       PRES   REMARKS
KINROSS        PTCLDY    70  62  76 VRB3      29.97R
MACKINAC ISLAN PTCLDY    73  63  72 S7        29.97R
NEWBERRY       PTCLDY    67  67  97 S12       29.94S
S. S. MARIE    CLOUDY    72  61  68 S5        29.96R
MUNISING         N/A     73  67  81 VRB5      29.89R
$$
MIZ004>006-011>014-085-210200-
CENTRAL UPPER MICHIGAN

CITY           SKY/WX    TMP DP  RH WIND       PRES   REMARKS
MANISTIQUE     CLEAR     67  61  81 S8G17     29.94S
ESCANABA       CLEAR     72  68  87 S12       29.92R
MENOMINEE      CLEAR     74  69  85 SW9       29.94S
SAWYER-GWINN   CLEAR     73  66  78 S8        29.92R
$$
MIZ001>003-009>011-084-210200-
WESTERN UPPER MICHIGAN

CITY           SKY/WX    TMP DP  RH WIND       PRES   REMARKS
IRON MOUNTAIN  CLEAR     75  65  70 S7        29.93R
HOUGHTON       MOCLDY    71  62  73 W13       29.91R
COPPER HARBOR    N/A     73  62  68 NW10G21   29.87R
$$

ABBREVIATIONS USED IN REMARKS
   TC - TEMPERATURE IN CELSIUS
  WCI - WIND CHILL INDEX
   HX - HEAT INDEX
  VSB - VISIBILITY





USA.gov is the U.S. government's official web portal to all federal, state and local government web resources and services.